Welcome to the New NWS' Forecast!
Most changes are behind the scenes, but click here for differences you might notice.
Latest weather observations around

Roanoke, Roanoke Regional Airport (KROA)

Using International System of Units (Switch to English Units)
Date/ Time (EDT) Wind (kph) Vis. (km) Weather Sky Cond. Temp (°C) Rel. Humidity Wind Chill (°C) Heat Index (°C) Pressure Precip. (cm)
Air Dwpt 6 hour Altimeter (hPa) Sea level (hPa) 1 hr 3 hr 6 hr
Max Min
Oct 17 09:54 W 22 16.09 Mostly Cloudy BKN250 13 2     47%       1022.5      
Oct 17 08:54 WNW 13 16.09 Mostly Cloudy BKN250 12 4     59%     1022.4 1022      
Oct 17 07:54 WNW 22 16.09 Mostly Cloudy BKN250 12 1     47%     1021.7 1021.4      
Oct 17 06:54   16.09 Partly Cloudy SCT250 13 1     45%     1021.3 1020.7      
Oct 17 05:54   16.09 Cloudy OVC240 14 5     55%     1021 1020.4      
Oct 17 04:54 NW 21 16.09 Mostly Cloudy BKN065 BKN080 15 8     64%     1020.3 1019.8      
Oct 17 03:54 Calm 16.09 Cloudy BKN038 BKN045 OVC060 16 14     90%     1019.7 1019      
Oct 17 02:54 Calm 16.09 Cloudy FEW010 OVC031 15 14     93%     1019.3 1018.6      
Oct 17 01:54 8 16.09 Cloudy OVC034 15 14     93%     1020 1019.2 0   0
Oct 17 00:54 ENE 5 16.09 Cloudy SCT022 OVC050 14 14     97%     1020 1019.5 0    
Notice The following observation data may not be complete
Oct 17 00:34   16.09 Cloudy BKN022 OVC100          %         0    
Oct 16 23:54 Calm 16.09 Light Rain FEW025 SCT090 OVC110 15 13     90%     1020.7 1020.1 0    
Oct 16 23:14 Calm 16.09 Light Rain FEW026 SCT075 OVC100 15 13     87%     1020.7   0    
Oct 16 22:54 ENE 5 16.09 Light Rain BKN026 OVC039 15 13     87%     1020.7 1020.1 0 0  
Oct 16 21:54 NNE 5 16.09 Light Rain FEW020 OVC028 16 12     78%     1020.7 1020.1 0    
Oct 16 20:54 NNE 15 16.09 Cloudy BKN020 OVC028 16 12     75%     1021 1020.3 0    
Oct 16 19:54 NNE 9 16.09 Clear   16 12     75%     1020.3 1020      
Oct 16 18:54 NE 11 16.09 Cloudy OVC028 17 12     72%     1020.3 1019.7      
Oct 16 17:54 NNE 8 16.09 Cloudy OVC028 18 13     73%     1020.3 1019.8      
Oct 16 16:54 NE 9 16.09 Cloudy BKN031 BKN085 OVC120 18 13     70%     1020.3 1019.8      
Oct 16 15:54 NE 9 16.09 Mostly Cloudy SCT030 BKN120 19 13     68%     1020.3 1019.7      
Oct 16 14:54 Calm 16.09 Mostly Cloudy FEW034 BKN120 19 13     68%     1020.3 1019.6      
Oct 16 13:54 NW 9 16.09 Cloudy FEW038 SCT110 OVC190 19 12     63%     1021.7 1020.9      
Oct 16 12:54 Calm 16.09 Mostly Clear FEW024 18 12     67%     1022.4 1021.5      
Oct 16 11:54 Calm 16.09 Mostly Cloudy SCT020 BKN170 17        %     1023.4 1022.4      
Oct 16 10:54 5 16.09 Partly Cloudy SCT120 16        %     1023.7 1022.8      
Oct 16 09:54 WNW 11 16.09 Mostly Cloudy FEW120 BKN160 16        %     1023 1023.1      
Oct 16 08:54 NW 8 16.09 Mostly Cloudy FEW080 BKN170 15        %     1022.7 1022      
Oct 16 07:54 W 9 16.09 Mostly Cloudy BKN080 15        %     1022.4 1021.5      
Oct 16 06:54 NNW 17 16.09 Partly Cloudy SCT120 15        %     1021.7 1020.9      
Oct 16 05:54 W 9 16.09 Cloudy OVC220 16        %     1021.7 1020.8      
Oct 16 04:54 NW 18 16.09 Cloudy OVC220 15        %     1021 1020.1      
Oct 16 03:54 NW 21 16.09 Cloudy OVC220 16        %     1020.7 1019.7      
Oct 16 02:54 NW 11 16.09 Cloudy OVC049 17        %     1021 1019.9      
Oct 16 01:54 NW 21 16.09 Cloudy OVC032 18        %     1020.7 1019.7     0
Oct 16 00:54 WSW 9 16.09 Mostly Cloudy BKN120 19        %     1019.7 1018.7      
Oct 15 23:54 W 8 16.09 Partly Cloudy SCT120 19        %     1020 1018.9      
Oct 15 22:54 W 13 16.09 Cloudy OVC170 19        %     1019.7 1018.8   0  
Oct 15 21:54 W 17 16.09 Mostly Cloudy BKN070 BKN090 19 16     79%     1020 1019.4 0    
Oct 15 20:54 WSW 17 16.09 Light Rain OVC065 21 16     75%     1020.3 1019.8 0    
Oct 15 19:54 SW 8 16.09 Partly Cloudy SCT080 23 17     71%   23 1019 1018.3      
Oct 15 18:54 S 5 16.09 Partly Cloudy FEW070 SCT090 24 15     57%   24 1018.3 1017.7      
Oct 15 17:54 WSW 13 16.09 Mostly Cloudy FEW040 BKN120 26        %     1018.3 1017.6      
Oct 15 16:54 S 11 16.09 Partly Cloudy FEW070 SCT100 27 16     52%   27 1018.3 1017.4      
Oct 15 15:54 SW 13 16.09 Mostly Cloudy BKN095 25 17     60%   25 1019 1018.1      
Oct 15 14:54 SW 5 16.09 Mostly Cloudy BKN090 23        %     1019.7        
Oct 15 13:54 Calm 16.09 Cloudy BKN070 OVC095 23        %     1020 1019.3      
Oct 15 12:54 S 9 16.09 Partly Cloudy SCT090 SCT110 21        %     1020.7 1020.1      
Oct 15 11:54 Calm 16.09 Mostly Cloudy SCT110 BKN150 19        %     1021.3 1020.8      
Oct 15 10:54 Calm 16.09 Mostly Cloudy SCT110 BKN140 16        %     1022 1021.7      
Oct 15 09:54 5 14.48 Cloudy SCT004 OVC110 13        %     1022.4 1022.1      
Oct 15 09:33 SSE 9 14.48 Cloudy OVC004 14        %     1022.4        
Oct 15 08:54 Calm 9.66 Fog/Mist OVC003 12        %     1022.4 1022.1      
Oct 15 08:20 Calm 4.83 Fog/Mist OVC002 12        %     1022.4        
Oct 15 07:54 Calm 8.05 Fog/Mist OVC003 12        %     1022 1021.9     0
Oct 15 07:23 Calm 16.09 Cloudy OVC004 12        %     1022        
Oct 15 06:54 Calm 16.09 Clear   12        %     1022        
Oct 15 06:09 Calm 16.09 Cloudy OVC004 12        %     1022.4        
Oct 15 05:54 Calm 16.09 Cloudy OVC005 12        %     1022 1021.9      
Oct 15 04:54 Calm 16.09 Cloudy OVC005 12        %     1022 1021.8 0 0  
Oct 15 03:54 Calm 16.09 Light Rain OVC005 12        %     1022.4 1022.3 0    
Oct 15 02:54 Calm 16.09 Cloudy OVC007 12        %     1022.7 1022.5 0    
Oct 15 01:54 SSE 5 16.09 Cloudy OVC007 12        %     1022.7 1022.4     0
Oct 15 00:54 S 5 16.09 Clear   12        %     1023.4 1023.2      
Oct 15 00:35 SSE 8 16.09 Cloudy OVC008 11        %     1023        
Oct 14 23:54 SE 5 16.09 Cloudy OVC010 12        %     1023.7 1023.7      
Oct 14 22:54 ESE 5 16.09 Cloudy OVC010 11        %     1023.7 1023.8   0  
Oct 14 21:54 SE 5 16.09 Cloudy OVC010 11        %     1023.7 1023.8 0    
Oct 14 20:54 Calm 16.09 Cloudy OVC010 11        %     1023.7 1023.8      
Oct 14 19:54 SE 9 16.09 Cloudy OVC011 11        %     1023.4 1023.4      
Oct 14 18:54 ESE 8 16.09 Cloudy OVC012 11 8     83%     1023 1023      
Oct 14 17:54 ESE 8 16.09 Cloudy OVC012 12 8     80%     1023 1022.9      
Oct 14 17:39 E 8 16.09 Cloudy OVC012 12 8     80%     1023        
Oct 14 16:54 SE 5 16.09 Cloudy OVC016 12 8     80%     1023.4 1023.4      
Oct 14 15:54 ESE 11 16.09 Cloudy OVC016 12 8     80%     1023 1023.1      
Oct 14 14:54 S 5 16.09 Cloudy BKN016 OVC055 11 7     77%     1023.4 1023.3      
Oct 14 13:54 Calm 16.09 Cloudy SCT017 OVC055 11 7     77%     1024.1 1024     0
Oct 14 13:26 SSE 5 16.09 Cloudy BKN016 BKN050 OVC060 11 7     77%     1024.1        
Oct 14 12:54 E 8 16.09 Cloudy FEW013 BKN046 OVC060 11 7     79%     1024.7 1024.8 0    
Oct 14 12:31 SE 5 16.09 Cloudy FEW011 BKN046 OVC075 11 7     79%     1025.1   0    
Oct 14 11:54 Calm 16.09 Cloudy FEW012 BKN021 OVC040 10 7     83%     1025.4 1025.4      
Oct 14 10:54 ESE 5 16.09 Cloudy FEW015 BKN021 OVC080 9 6     80% 9   1025.4 1025.3 0    
Oct 14 10:28 Calm 16.09 Light Rain BKN022 BKN029 OVC080 9 7     86%     1025.7   0    
Oct 14 09:54 Calm 16.09 Light Rain SCT037 BKN080 OVC090 9 6     80%     1025.7 1025.6 0    
Oct 14 09:35 Calm 16.09 Light Rain SCT037 BKN080 OVC090 9 6     81%     1025.4   0    
Oct 14 08:54 SW 5 16.09 Light Rain OVC025 9 5     77% 8   1025.4 1025.4 0    
Oct 14 07:54 SSE 13 16.09 Cloudy OVC026 9 5     77% 7   1023.7 1023.8 0   0
Oct 14 06:54   16.09 Cloudy OVC027 9 6     83%     1023.4 1023.3      
Oct 14 05:54 Calm 16.09 Cloudy OVC028 9 7     87%     1023 1022.9      
Oct 14 04:54 Calm 16.09 Mostly Cloudy BKN050 9 7     87%     1022.7 1022.1      
Oct 14 03:54 Calm 16.09 Cloudy OVC055 9 7     87%     1022.7 1022.4      
Oct 14 02:54 Calm 16.09 Clear CLR 8 7     93%     1022 1021.8      
Oct 14 01:54 W 5 16.09 Clear CLR 8 7     93% 7   1022 1021.7      
Oct 14 00:54 NE 5 16.09 Clear CLR 8 6     87% 7   1020.7 1020.6      
Oct 13 23:54 WSW 9 16.09 Clear CLR 8 6     87% 6   1021.3 1021.2      
Oct 13 22:54 ENE 5   Clear CLR 9 6     81% 9   1020.7 1020.5      
Oct 13 21:54 NNE 5 16.09 Clear CLR 9 6     77% 9   1020.3 1020.1      
Oct 13 20:54 N 8 16.09 Clear CLR 10 5     71%     1019.7 1019.5      
Oct 13 19:54 8 16.09 Clear CLR 11 5     68%     1018.6 1018.6      
Oct 13 18:54 NW 11 16.09 Clear CLR 12 5     63%     1018.3 1018.1      
Oct 13 17:54 WNW 5 16.09 Clear CLR 15 3     45%     1017.3 1017      
Oct 13 16:54 W 9 16.09 Clear CLR 15 4     47%     1016.9 1016.6      
Oct 13 15:54 W 9 16.09 Clear CLR 15 4     47%     1016.9 1016.5      
Oct 13 14:54 NW 13 16.09 Mostly Clear FEW040 15 4     47%     1016.6 1016.3      
Oct 13 13:54 W 24 16.09 Mostly Clear FEW040 14 4     51%     1016.9 1016.5      
Oct 13 12:54   16.09 Partly Cloudy SCT038 14 4     53%     1016.9 1016.6      
Oct 13 11:54 NW 28 16.09 Partly Cloudy SCT040 13 4     55%     1017.3 1017      
Oct 13 10:54 WNW 26 16.09 Mostly Cloudy BKN037 BKN045 12 4     59%     1016.9 1016.6      
Oct 13 09:54   16.09 Mostly Cloudy SCT041 BKN050 12 4     59%     1015.6 1015.5      
Oct 13 08:54   16.09 Mostly Cloudy BKN037 BKN049 12 6     66%       1014.5      
Oct 13 07:54   16.09 Mostly Cloudy BKN036 BKN048 12 6     66%     1013.6 1013.3     0
Oct 13 05:54 N 5 16.09 Mostly Cloudy BKN040 12 8     77%     1011.9 1011.4 0    
Oct 13 03:54 Calm 16.09 Cloudy OVC060 12 8     77%     1011.5 1010.9 0    
Oct 13 01:54 NNW 5 16.09 Cloudy FEW080 SCT090 OVC110 12 8     77%     1010.8 1010.3      
Oct 12 18:54 WNW 13 16.09 Mostly Cloudy BKN200 14 5     53%     1011.2 1010.6      
Oct 12 17:54 W 11 16.09 Partly Cloudy SCT200 17 3     40%     1010.5 1010.1      
Oct 12 16:54 NW 13 16.09 Partly Cloudy SCT200 19 2     33%     1010.2 1009.7      
Oct 12 10:54   16.09 Clear CLR 14 4     51%       1012.2      
Oct 12 08:54 NW 17 16.09 Clear CLR 12 3     56%       1012      
Oct 12 06:54 NW 21 16.09 Clear CLR 11 4     61%     1012.2 1011.4      
Notice The following observation data may not be complete
Oct 12 05:54   16.09 Clear CLR          %              
Oct 12 02:54 NW 26 16.09 Clear CLR 13 6     62%     1009.5        
Oct 12 01:54   16.09 Clear CLR 14 6     59%     1009.2        
Oct 11 23:54 WNW 26 16.09 Clear CLR 14 7     60%     1008.5 1007.7      
Oct 11 22:54   16.09 Clear CLR 16 8     58%       1007.1      
Oct 11 21:54 WNW 22 16.09 Clear CLR 17 9     62%       1006.2      
Oct 11 19:54 NW 26 16.09 Mostly Cloudy BKN045 21 13     59%     1003.4 1002.3     0
Oct 11 18:15   16.09 Cloudy FEW025 BKN038 OVC045 22 18     76%   22 1001.7        
Oct 11 17:54 N 26 16.09 Mostly Cloudy BKN029 BKN035 21 18     81%     1001.4 1000.1 0    
Oct 11 16:54   16.09 Light Rain SCT065 OVC130 21 18     84%     1001 999.8 0 0  
Notice The following observation data may not be complete
Oct 11 14:28   6.44 Light Rain and Fog/Mist OVC070          %         0    
Oct 11 13:54   2.41 Heavy Rain and Fog/Mist BKN034 OVC055 20 18     90%     1003.1 1002.1 2   6
Notice The following observation data may not be complete
Oct 11 13:00   2.01 Heavy Rain and Fog/Mist OVC016          %         0    
Oct 11 12:54 NE 21 4.02 Rain and Fog/Mist OVC013 22 21     91%   23 1004.8 1003.5 1    
Oct 11 12:27   2.82 Heavy Rain and Fog/Mist FEW009 BKN012 OVC026 22 21     93%   22 1005.1   1    
Notice The following observation data may not be complete
Oct 11 12:12   3.22 Rain and Fog/Mist BKN009 BKN016 OVC028          %         0    
Oct 11 12:08 NW 13 2.82 Heavy Rain and Fog/Mist SCT007 BKN014 OVC032 22 21     93%   23 1005.1   0    
Oct 11 11:27   1.61 Heavy Rain and Fog/Mist OVC026 22 21     93%   23 1005.4   1    
Notice The following observation data may not be complete
Oct 11 10:35   4.83 Light Rain and Fog/Mist FEW027 BKN043 OVC070          %         1    
Oct 11 10:27   2.41 Heavy Rain and Fog/Mist FEW025 OVC041 22 22     97%   23 1006.4   1    
Oct 11 08:18 ENE 8 16.09 Cloudy FEW017 BKN024 OVC033 23 22     94%   24 1008.1        
Oct 11 02:54 ESE 11 9.66 Light Rain and Fog/Mist BKN023 BKN028 OVC037 22 22     97%   23 1009.5 1008.5 0    
Notice The following observation data may not be complete
Oct 11 02:01   4.02 Light Rain and Fog/Mist BKN004 BKN014 OVC029          %         0    
Oct 11 01:54 SE 8 4.83 Light Rain and Fog/Mist BKN004 OVC010 22 22     97%   23 1010.5 1009.2 0   1
Oct 11 01:25 SE 9 11.27 Cloudy BKN004 OVC009 22 22     97%   23 1010.5   0    
Oct 11 01:15 SE 11 4.83 Light Rain and Fog/Mist OVC005 22 22     97%   23 1010.8   0    
Notice The following observation data may not be complete
Oct 11 00:39   4.02 Light Rain and Fog/Mist BKN005 OVC009          %         0    
Oct 10 20:19 ESE 17 16.09 Light Rain BKN008 BKN016 OVC028 23 22     94%   24 1013.9   0    
Oct 10 19:42   16.09 Light Rain SCT007 BKN015 OVC028 23 22     94%   24 1013.6   0    
Oct 10 19:28   14.48 Light Rain BKN007 BKN011 OVC016 23 22     94%   24 1013.6   0    
Oct 10 18:54 SE 13 8.05 Light Rain and Fog/Mist FEW007 BKN010 OVC021 23 22     94%   24 1013.9 1012.9 0    
Oct 10 14:03 ESE 9 3.22 Light Rain and Fog/Mist BKN006 OVC013 22 21     96%   22 1017.3   0    
Oct 10 13:39 ESE 15 3.22 Light Rain and Fog/Mist BKN007 OVC011 22 21     93%   22 1017.6   0    
Notice The following observation data may not be complete
Oct 10 12:17   9.66 Light Rain and Fog/Mist BKN013 BKN019 OVC029          %         0    
Oct 10 12:09 ESE 13 8.05 Light Rain and Fog/Mist BKN009 BKN015 OVC021 22 21     93%   22 1019.3   0    
Oct 10 10:07 E 5 3.22 Light Rain and Fog/Mist FEW009 BKN012 OVC028 21 20     93%     1020.3   0    
Oct 10 10:01 ESE 5 3.22 Light Rain and Fog/Mist SCT014 BKN024 OVC036 21 20     93%     1020.3   0    
Oct 10 08:35 ESE 11 12.87 Light Rain SCT007 BKN026 21 20     93%     1020.7   0    
Oct 10 05:15 SSE 9 12.87 Mostly Cloudy SCT013 BKN018 BKN034 21 20     96%     1020.7        
Oct 10 02:54 SE 11 16.09 Partly Cloudy FEW004 SCT012 SCT017 21 19     93%     1021.7 1020.4 0    
Oct 09 20:22 Calm 16.09 Cloudy FEW007 BKN028 OVC036 22 20     90%   22 1023.4        
Oct 09 19:31 ESE 11 4.83 Light Rain and Fog/Mist FEW007 BKN017 OVC031 22 21     93%   22 1023.4   0    
Oct 09 18:54 ESE 8 16.09 Cloudy FEW008 BKN060 OVC075 22 20     90%   22 1023.4 1022.5 0    
Oct 09 17:54 SE 17 6.44 Light Rain FEW023 BKN043 OVC050 23 20     84%   23 1023.7 1022.7 0    
Oct 09 10:54 ESE 15 16.09 Cloudy SCT015 OVC023 22 19     82%   23 1027.8 1026.5   0  
Oct 09 10:17 ESE 13 16.09 Cloudy SCT011 SCT018 OVC024 22 19     84%   22          
Oct 09 09:54 SSE 15 16.09 Cloudy BKN011 OVC023 22 19     84%   22   1026.6      
Oct 09 08:54 ESE 9 16.09 Cloudy OVC019 21 19     90%     1027.4 1026.4 0    
Notice The following observation data may not be complete
Oct 09 07:42   16.09 Cloudy BKN023 BKN034 OVC046          %              
Oct 09 07:14 ESE 15 16.09 Cloudy SCT025 BKN034 OVC055 21 19     93%     1027.4        
Oct 09 05:44 ESE 11 16.09 Cloudy SCT009 SCT014 OVC021 21 19     90%     1027.1        
Oct 09 05:03 ESE 9 16.09 Cloudy BKN012 BKN021 OVC044 21 19     90%     1026.8        
Oct 09 00:54 ESE 15 16.09 Mostly Cloudy BKN050 23 19     81%   23 1027.8 1026.7      
Oct 08 20:54 SE 11 16.09 Mostly Cloudy BKN035 23 19     79%   24 1027.1 1026      
Oct 08 17:54 SE 11 16.09 Mostly Clear FEW030 FEW075 26 20     69%   27 1026.4 1025.2      
Oct 08 16:54 SE 15 16.09 Partly Cloudy FEW030 SCT075 26 19     69%   26 1026.4 1025.2      
Oct 08 13:54 ESE 22 16.09 Mostly Cloudy FEW029 SCT040 BKN060 27 19     64%   28 1027.1 1025.9      
Oct 08 13:20 ESE 17 16.09 Cloudy BKN025 BKN033 OVC060 26 20     69%   27 1027.4        
Oct 08 13:12 SE 15 16.09 Mostly Cloudy SCT025 BKN034 BKN046 26 20     69%   27 1027.4        
Notice The following observation data may not be complete
Oct 08 12:30   16.09 Clear            %              
Oct 08 11:54 8 16.09 Clear   26 21     76%   26 1028.5 1027.1      
Oct 08 09:36 NE 5 0.2 Cloudy BKN004 BKN016 OVC041 22 21     96%   22 1027.8        
Oct 08 08:54 Calm 0.2 Fog VV002 21 21     100%     1027.8 1026.6      
Oct 08 07:54 Calm 0.2 Fog/Mist OVC002 21 20     93%     1027.1 1026.1      
Oct 08 07:51 Calm 0.2 Fog/Mist OVC002 21 20     94%     1027.1        
Oct 08 05:54 Calm 8.05 Fog/Mist FEW001 21 19     93%     1026.8 1025.4      
Oct 07 23:54 Calm 16.09 Clear CLR 23 21     90%   23 1026.1 1024.8      
Oct 07 20:54 E 5 16.09 Mostly Clear FEW032 24 21     82%   25 1025.1 1023.9      
Oct 07 17:54 Calm 16.09 Partly Cloudy FEW038 SCT100 28 23     74%   31 1024.1 1022.7 0    
Oct 07 15:54 5 16.09 Partly Cloudy FEW048 SCT060 30 20     55%   32 1023.7 1022.2      
Oct 07 11:54 Calm 16.09 Partly Cloudy SCT030 27 21     71%   28 1025.7 1024.3      
May 15 14:54 S 18 16.09 Mostly Cloudy FEW042 BKN100 BKN160 31 20     52%   33 1014.9 1013.5      
May 14 23:54 ENE 5 16.09 Cloudy OVC070 24 17     66%   24 1017.3 1015.8      
May 14 18:54 S 18 16.09 Partly Cloudy FEW070 SCT100 SCT250 31 17     43%   32 1014.9 1013.4      
May 14 12:54 S 8 16.09 Mostly Clear FEW048 31 17     43%   32 1018 1016.5      
May 14 11:54 8 16.09 Mostly Clear FEW048 30 17     45%   30 1018.3 1016.8      
May 13 17:54 WSW 15 16.09 Clear CLR 33 12     29%   32 1015.6 1014      
May 12 17:54 WSW 9 16.09 Mostly Cloudy FEW080 BKN160 33 13     31%   32 1016.9 1015.3      
May 12 07:54 W 5 16.09 Partly Cloudy SCT250 22 16     70%   22 1021 1019.7      
May 12 06:20 Calm 16.09 Partly Cloudy SCT250 19 14     73%     1020        
May 11 14:54 9 16.09 Partly Cloudy SCT060 30 13     35%   29 1017.3 1015.9      
Jun 12 02:54 WNW 8 16.09 Clear CLR 22 15     66%   22 1021.3 1019.9      
Jun 10 01:54 Calm 16.09 Clear CLR 15 12     83%     1018.3 1017.3      
Jun 09 11:54 NW 24 16.09 Partly Cloudy SCT043 SCT050 23 11     45%   23 1015.6 1014.7      
Jun 09 02:54 W 13 16.09 Mostly Cloudy BKN090 15 13     90%     1012.5 1011.8      
Jun 09 00:54 W 9 16.09 Cloudy OVC090 15 14     93%     1012.9 1012.3      
Jun 08 09:54 ENE 11 16.09 Mostly Cloudy BKN028 BKN035 16 11     72%     1016.3 1015.7      
Jun 07 22:54 NE 11 16.09 Mostly Cloudy FEW027 BKN041 BKN048 17 12     72%     1017.3 1016.5      
Jun 07 11:54 NE 13 16.09 Partly Cloudy SCT044 22 10     47%   21 1014.6 1013.6      
Jun 06 07:54 9 16.09 Partly Cloudy FEW040 SCT280 20 16     76%     1010.2 1009.2      
Jun 05 15:54 WSW 9 16.09 Light Rain FEW013 OVC060 20 18     90%     1009.5 1008.5 0